Location: Ahausen
(50.4985°N, 8.2722°E)
Time: 17:57:47
(UTC+00:00)

USA 234 - Pass Details

Date: 18 September 2020
Orbit: 1102 x 1106 km, 123.0° (Epoch: 16 October)

Event Time Altitude Azimuth Distance (km) Brightness Sun altitude
Rises 21:59:24 0° 65° (ENE) 3,925 6.2 -35.3°
Reaches altitude 10° 22:01:55 10° 62° (ENE) 2,966 5.5 -35.4°
Enters shadow 22:03:22 18° 58° (ENE) 2,437 5.1 -35.5°
Exits shadow 22:06:55 49° 29° (NNE) 1,396 3.8 -35.7°
Maximum altitude 22:08:19 59° 345° (NNW) 1,264 3.7 -35.8°
Drops below altitude 10° 22:14:42 10° 268° (W) 2,964 5.7 -36.2°
Sets 22:17:13 0° 265° (W) 3,922 6.3 -36.3°
